Regional Weather Roundup
Issued by NWS

Home | Current Version | Previous Version | Text Only | Print | Product List | Glossary On
Versions: 1 2 3 4 5 6 7 8 9 10 11 12 13 14 15 16 17 18 19 20 21 22 23 24 25 26 27 28 29 30 31 32 33 34 35 36 37 38 39 40 41 42 43 44 45 46 47 48 49 50
000
ASUS45 KTFX 292319
RWRMT
MONTANA HOURLY WEATHER ROUNDUP
NATIONAL WEATHER SERVICE GREAT FALLS MT
519 PM MDT TUE JUL 29 2014

NOTE: "FAIR" INDICATES FEW OR NO CLOUDS BELOW 12000 FEET WITH NO
SIGNIFICANT WEATHER AND/OR OBSTRUCTIONS TO VISIBILITY.

* THESE STATIONS ARE NOT UNDER NWS QUALITY CONTROL. THEY DO NOT
   REPORT WEATHER SUCH AS PRECIPITATION OR FOG.

MTZ001>007-043-300000-
WEST OF THE DIVIDE
CITY           SKY/WX    TMP DP  RH WIND       PRES   REMARKS
KALISPELL      CLEAR     93  43  18 VRB5      30.07F
MISSOULA       CLEAR     95  34  12 N14G22    30.07F
BUTTE          MOCLDY    81  41  24 E9        30.26S
MULLAN PASS    PTCLDY    81  37  21 CALM      30.30F
* LINCOLN      N/A       80  42  26 SE5G18     N/A
* LOOKOUT PASS N/A       86  39  19 NE2        N/A
* POLSON       N/A       91  42  18 N3         N/A
* RONAN APT    PTCLDY    91  43  19 N/A        N/A
* SEELEY LAKE  N/A       92  30  11 SW6G11     N/A
* THOMP F APT  PTCLDY    78  43  29 E8G15      N/A
* YAAK HILL    N/A      103  44  13 NW3        N/A
$$

MTZ008-052>055-300000-
SOUTHWEST MONTANA
CITY           SKY/WX    TMP DP  RH WIND       PRES   REMARKS
BOZEMAN        PTCLDY    82  46  28 SE18      30.17F
DILLON         CLOUDY    73  48  41 N21       30.22R
W YELLOWSTONE  CLOUDY    70  45  41 S14G22    30.31F
* THREE FORKS  PTCLDY    90  55  31 E9         N/A
* BOULDER HILL N/A       81  43  26 S13G20     N/A
* MONIDA PASS  N/A       65  49  56 SW10G17    N/A
* RAYNOLDS PAS N/A       67  29  24 NE9        N/A
* WHITEHALL    N/A       81  37  21 N10G21     N/A
* WISE RIVER   N/A       75  37  25 S18G25     N/A
$$

MTZ009>010-012-014-046-048-049-054-300000-
EAST SLOPES AND CENTRAL MONTANA
CITY           SKY/WX    TMP DP  RH WIND       PRES   REMARKS
CUT BANK       PTCLDY    90  39  17 VRB3      30.17F
GREAT FALLS    PTCLDY    91  43  19 NE13      30.14F
HELENA         MOCLDY    90  41  18 NE8       30.13S
MALMSTROM AFB  PTCLDY    90  41  18 E12       30.14F
* CONRAD       PTCLDY    86  52  31 N/A        N/A
* DEARBORN     N/A       88  42  20 VRB11G16    N/A
* EAST GLACIER N/A       83  42  23 S8G14      N/A
* MONARCH      N/A       81  39  22 E8G16      N/A
* ROGERS PASS  N/A       81  39  22 W4         N/A
* SAINT MARY   N/A       90  41  18 NE5G12     N/A
* SWEET GRASS  N/A       89  39  17 S9         N/A
* WHITE SULPH  N/A       76  40  27 NE14G31    N/A
$$

MTZ011-013-016-021-035-040-045-047-050-051-300000-
NORTH CENTRAL MONTANA
CITY           SKY/WX    TMP DP  RH WIND       PRES   REMARKS
HAVRE          CLEAR     95  43  17 E12G18    30.10F
LEWISTOWN      PTCLDY    88  39  18 E15       30.20F
* FORT BENTON  PTCLDY    93  41  16 NE7       30.11F
* CHESTER      N/A       91  37  15 E5G10      N/A
* DENTON       N/A       90  48  24 E9G31      N/A
* GEYSER       N/A       88  46  23 E6G14      N/A
* JUDITH GAP   N/A       81  48  32 SE4G9      N/A
* LOMA         N/A       94  41  16 NE12G18    N/A
$$

MTZ017>020-022>027-061-062-300000-
NORTHEAST MONTANA
CITY           SKY/WX    TMP DP  RH WIND       PRES   REMARKS
GLASGOW        CLEAR     90  43  19 NE12      30.14F
GLENDIVE       CLEAR     86  41  20 N14G21    30.16F
JORDAN         CLEAR     90  39  17 NE16G21   30.15F
SIDNEY         CLEAR     82  52  35 N15       30.16S
WOLF POINT     CLEAR     91  45  20 N13G20    30.15S
* BEAVER HILL  N/A       83  40  22 N16G24     N/A
* CIRCLE       N/A       88  49  26 NW5G10     N/A
* LINDSAY DVD  N/A       83  42  23 VRB9G18    N/A
$$

MTZ028>042-056>058-300000-
SOUTHCENTRAL AND SOUTHEAST MONTANA
CITY           SKY/WX    TMP DP  RH WIND       PRES   REMARKS
BAKER          CLOUDY    88  45  22 N13       30.18F
BILLINGS       PTCLDY    90  46  22 E14G20    30.16F
LIVINGSTON     MOCLDY    88  45  22 NE13      30.19F
MILES CITY     FAIR      90  46  22 N/A       30.15F
* LAUREL APT   PTCLDY    86  46  25 NE6        N/A
* ROUNDUP APT  CLEAR     90  41  18 N/A        N/A
* ALZADA       N/A       82  47  29 E9         N/A
* HYSHAM       N/A       87  45  23 E7G20      N/A
* LAME DEER    N/A       80  40  24 N5G14      N/A
* REED POINT   N/A       88  50  27 NE7G17     N/A
* ROSCOE HILL  N/A       80  45  29 E11        N/A
$$

REGIONAL REPORTS...DAKOTAS
CITY           SKY/WX    TMP DP  RH WIND       PRES   REMARKS
WILLISTON      CLEAR     84  48  29 NE13G18   30.15F
DICKINSON      MOCLDY    84  50  31 N8        30.13F
CROSBY         CLEAR     75  61  62 N8        30.17F
TIOGA          CLEAR     77  57  50 N9        30.19F
WATFORD CITY   CLEAR     82  54  38 NE8       30.13S
BISMARCK       PTCLDY    81  55  41 SW6       30.14F HI  81
GRAND FORKS    FAIR      79  54  42 N8        30.10F
FARGO          FAIR      77  52  42 N9        30.10F
BUFFALO SD     CLEAR     82  48  31 SE7       30.12F
RAPID CITY     MOCLDY    72  54  53 S7        30.22F
$$

REGIONAL REPORTS...WYOMING/IDAHO/WASHINGTON
CITY           SKY/WX    TMP DP  RH WIND       PRES   REMARKS
GILLETTE       CLOUDY    72  55  55 W9        30.26F
SHERIDAN       MOCLDY    81  43  26 SE13      30.23S
YELLOWSTONE LA CLOUDY    55  48  77 W8        30.46R
SALMON         MOCLDY    88  41  19 SE12      30.07R
MULLAN PASS    PTCLDY    81  37  21 CALM      30.30S
SAND POINT     CLEAR     91  52  26 E3        30.01F
SPOKANE        FAIR      99  39  12 E10       30.02F
$$

REGIONAL REPORTS...ALBERTA
CITY           SKY/WX    TMP DP  RH WIND       PRES   REMARKS
CALGARY        FAIR      88  36  16 SE9G17    30.15S
LETHBRIDGE     FAIR      88  54  31 E8        30.13F
MEDICINE HAT   FAIR      95  39  14 N7        30.10F
EDMONTON       FAIR      82  64  55 SE7       30.09F HI  84
WATERTON GATE  N/A       77  50  39 SE5        N/A
CARDSTON       N/A       90  50  25 SE5        N/A
MILK RIVER     N/A       90  39  17 E5         N/A
$$

REGIONAL REPORTS...SASKATCHEWAN
CITY           SKY/WX    TMP DP  RH WIND       PRES   REMARKS
SWIFT CURRENT  CLEAR     82  50  33 E7        30.18F
MOOSE JAW      FAIR      79  57  47 NE6       30.19F
REGINA         FAIR      81  54  39 NW10      30.19F
VAL MARIE      N/A       84  50  31 SE3        N/A
ASSINIBOIA     N/A       79  50  36 E6         N/A
CORONACH       N/A       81  50  34 NE9        N/A

$$



USA.gov is the U.S. government's official web portal to all federal, state and local government web resources and services.